Retour au catalogue

WESTFORD NEEDLES

ActifPO
NORAD 2364·DEBRIS·🇺🇸 United States

Lancé May 9, 1963 depuis Vandenberg Space Force Base

Loading…

Prochains Passages (prochaines 24 heures)

TLE

FraisSource: Space-Track

Époque: Sep 14, 2026, 01:16 UTC

1 02364U 63014P   26257.05345725 -.00000009  00000-0 -38470-2 0  9997
2 02364  87.5762 274.1543 0580745 303.8676  50.8217  8.67253736  3643

Suivez WESTFORD NEEDLES en temps réel avec AllMySat

Download on the App Store